STARLINK-31861 (59906 NORAD) Tracking and Keplerian Element Data

This shows tracking and keplerian element data for the satellite.

Feedback or suggestion? Click here.




ElementValue
Catalog59906
NameSTARLINK-31861
Epoch Orbit281
Epoch Day160.16667824
Epoch Year2024
RAAN174.2883
Inclination43.003
Eccentricity0.0001191
Argument of Perigee266.1347
Mean Anonmoly355.7141
Mean Motion15.79888267
Decay Rate-0.01134252
L11 59906U 24100X 24160.16667824 -.01134252 00000+0 -66457-2 0 9998
L22 59906 43.0030 174.2883 0001191 266.1347 355.7141 15.79888267 2813



Live tracking and technical data element details for STARLINK-31861 (NORAD 59906). STARLINK-31861 can be tracked NOW for your location showing map with azimuth and elevation plus other details from your city location.







IsCatalogInMostPopularTable: catalog: 59906, numindb: 8
Update: records affected: 1



GetName: 59906 STARLINK-31861

Hit Count: updated at: Thu, 25 Jul 2024 01:32:11 GMT